Tracking 19570 objects as of 22-Feb-2019
HD Live streaming from Space Station
objects crossing your sky now

MARECS B2

Track MARECS B2 now!
MARECS B2 is classified as:


NORAD ID: 15386
Int'l Code: 1984-114B
Perigee: 36,531.6 km
Apogee: 37,582.3 km
Inclination: 16.3 °
Period: 1,501.1 minutes
Semi major axis: 43427 km
RCS: 3.0552 m2 (large)
Launch date: November 10, 1984
Source: European Space Agency (ESA)
Launch site: FRENCH GUIANA (FRGUI)
aabbcc
Your satellite tracking list
Your tracking list is empty




NASA's NSSDC Master Catalog

Two Line Element Set (TLE):
1 15386U 84114B   19053.15196741 -.00000234  00000-0  00000+0 0  9992
2 15386  16.3367 353.7607 0120977 346.9841 188.7442  0.95928815 87021
Source of the keplerian elements: AFSPC